Regional Weather Roundup
Issued by NWS Goodland, KS

Home | Current Version | Previous Version | Text Only | Print | Product List | Glossary Off
Versions: 1 2 3 4 5 6 7 8 9 10 11 12 13 14 15 16 17 18 19 20 21 22 23 24 25 26 27 28 29 30 31 32 33 34 35 36 37 38 39 40 41 42 43 44 45 46 47 48 49 50

000
ASUS43 KGLD 312159
RWRGLD

GOODLAND FORECAST AREA HOURLY WEATHER ROUNDUP
NATIONAL WEATHER SERVICE GOODLAND KS
400 PM MDT FRI OCT 31 2014

...OFFICIAL OBSERVATIONS...

CITY           SKY/WX    TMP DP  RH WIND       PRES   REMARKS
GOODLAND KS    SUNNY     48  26  42 SE18      30.31F
HILL CITY KS   SUNNY     46  12  25 SE10      30.41F
IMPERIAL NEB   SUNNY     48  21  34 SE24      30.29F
MCCOOK NEB     SUNNY     48  18  30 SE15G24   30.37F
AKRON CO       SUNNY     52  26  36 S28G36    30.19F
BURLINGTON CO  SUNNY     50  26  39 S22G32    30.27F
LIMON CO       SUNNY     50  28  42 S28G36    30.21F
$$

...UNOFFICIAL OBSERVATIONS...

CITY           SKY/WX    TMP DP  RH WIND       PRES   REMARKS
TRENTON NEB      N/A     50  32  50 SE16        N/A
$$



USA.gov is the U.S. government's official web portal to all federal, state and local government web resources and services.